PBO Station Position Time Series. Reference Frame : NAM14
Format Version,1.1.1
4-character ID,P581
Station name,WoodsPropyCS2005
Begin Date, 2005-12-16
End Date, 2023-06-26
Release Date, 2023-06-27
Reference position, 34.5097391175 North Latitude, -117.7290022183 East Longitude, 972.78894 meters elevation,
Date, North (mm), East (mm), Vertical (mm), North Std. Deviation (mm), East Std. Deviation (mm),              Vertical Std. Deviation (mm), Quality,
2005-12-16,0.00, 0.00, 0.00, 1.96, 1.61, 7.39, repro,
2005-12-17,0.47, -1.05, 0.81, 2.03, 1.72, 7.71, repro,
2005-12-18,1.39, 0.04, -5.34, 2.05, 1.78, 7.83, repro,
2005-12-19,2.25, -0.52, -8.69, 2.06, 1.77, 7.72, repro,
2005-12-20,2.13, -0.38, -9.55, 2.04, 1.81, 7.78, repro,
2005-12-21,1.59, 0.51, -3.40, 1.99, 1.74, 7.53, repro,
2005-12-22,0.91, 2.31, -0.23, 2.02, 1.80, 7.65, repro,
2005-12-23,2.04, 0.48, -1.40, 2.05, 1.74, 7.72, repro,
2005-12-24,0.80, -0.09, -3.76, 2.17, 1.85, 8.14, repro,
2005-12-25,0.68, 0.07, -2.36, 2.11, 1.79, 8.01, repro,
2005-12-26,0.82, -1.12, -1.67, 2.05, 1.72, 7.68, repro,
2005-12-27,1.08, -0.79, -2.18, 2.14, 1.81, 8.06, repro,
2005-12-28,1.30, -0.20, -1.96, 2.02, 1.71, 7.57, repro,
2005-12-29,0.25, -0.22, 1.49, 2.23, 1.99, 8.63, repro,
2005-12-30,0.69, -0.43, 8.06, 2.18, 1.85, 8.17, repro,
2005-12-31,-0.61, 2.64, 11.43, 2.21, 1.89, 8.46, repro,
2006-01-01,0.04, -0.38, 4.14, 2.10, 1.74, 7.89, repro,
2006-01-02,2.49, -0.68, 4.73, 2.04, 1.68, 7.65, repro,
2006-01-03,1.63, 1.27, 2.87, 2.23, 1.93, 8.36, repro,
2006-01-04,1.65, -0.34, -5.41, 2.10, 1.82, 7.74, repro,
2006-01-05,1.18, 0.57, -3.43, 2.06, 1.77, 7.77, repro,
2006-01-06,1.44, -0.57, 0.52, 2.21, 1.93, 8.49, repro,
2006-01-07,1.85, -0.83, 7.81, 2.09, 1.73, 7.87, repro,
2006-01-08,1.67, 0.48, 1.62, 2.06, 1.77, 7.66, repro,
2006-01-09,1.94, -0.12, -2.03, 2.12, 1.78, 7.97, repro,
2006-01-10,1.22, 0.07, -1.51, 2.13, 1.81, 8.02, repro,
2006-01-11,1.51, 0.96, 3.66, 2.14, 1.80, 8.07, repro,
2006-01-12,1.74, 0.29, -0.61, 2.09, 1.76, 7.71, repro,
2006-01-13,0.99, 0.71, 7.57, 2.23, 1.90, 8.44, repro,
2006-01-14,3.51, 0.71, 0.62, 2.06, 1.67, 7.66, repro,
2006-01-15,-0.04, -0.61, 3.93, 1.98, 1.64, 7.46, repro,
2006-01-16,1.61, 0.22, 0.20, 2.09, 1.83, 7.84, repro,
2006-01-17,0.58, 1.10, -0.19, 2.08, 1.75, 7.68, repro,
2006-01-18,-0.46, 0.02, 6.08, 2.00, 1.64, 7.48, repro,
2006-01-19,1.68, -0.09, -0.20, 2.04, 1.65, 7.68, repro,
2006-01-20,0.68, -0.65, -6.54, 2.04, 1.68, 7.75, repro,
2006-01-21,1.65, 0.29, -0.42, 2.02, 1.66, 7.52, repro,
2006-01-22,1.11, 0.03, -1.56, 1.96, 1.61, 7.34, repro,
2006-01-23,1.70, 0.44, 1.96, 1.99, 1.59, 7.36, repro,
2006-01-24,0.95, -0.02, 1.05, 2.03, 1.64, 7.63, repro,
2006-01-25,0.17, 0.63, 2.88, 1.91, 1.58, 7.22, repro,
2006-01-26,0.29, -0.38, -6.72, 1.91, 1.57, 7.20, repro,
2006-01-27,1.71, 0.40, -5.99, 1.91, 1.56, 7.16, repro,
2006-01-28,1.91, 0.92, -3.10, 1.91, 1.57, 7.21, repro,
2006-01-29,1.10, -0.46, -2.01, 1.92, 1.58, 7.27, repro,
2006-01-30,0.76, 0.73, -2.10, 1.94, 1.58, 7.30, repro,
2006-01-31,1.44, 0.43, 1.70, 1.93, 1.57, 7.30, repro,
2006-02-01,1.01, -0.30, 0.20, 1.94, 1.58, 7.34, repro,
2006-02-02,1.97, -0.19, 5.70, 1.93, 1.57, 7.33, repro,
2006-02-03,0.26, -0.98, -0.95, 1.94, 1.58, 7.33, repro,
2006-02-04,1.05, -0.69, 0.72, 1.94, 1.58, 7.35, repro,
2006-02-05,0.57, 0.17, -1.26, 1.93, 1.57, 7.31, repro,
2006-02-06,0.15, -0.22, -5.29, 1.93, 1.56, 7.32, repro,
2006-02-07,0.94, -0.43, -6.86, 1.92, 1.56, 7.33, repro,
2006-02-08,1.85, 0.28, -7.57, 1.93, 1.57, 7.36, repro,
2006-02-09,1.39, -0.41, -3.26, 2.00, 1.58, 7.56, repro,
2006-02-10,1.10, 0.26, -3.61, 2.08, 1.59, 7.74, repro,
2006-02-11,0.69, -0.06, -9.17, 1.94, 1.56, 7.36, repro,
2006-02-12,0.73, 0.09, -9.24, 1.94, 1.56, 7.38, repro,
2006-02-13,1.02, 0.11, -4.33, 1.94, 1.56, 7.36, repro,
2006-02-14,-0.69, -0.21, 1.46, 1.95, 1.56, 7.37, repro,
2006-02-15,-1.24, -0.68, 0.69, 1.93, 1.57, 7.38, repro,
2006-02-16,0.40, 0.11, -2.09, 1.94, 1.58, 7.36, repro,
2006-02-17,-0.80, -0.78, -4.66, 1.93, 1.55, 7.27, repro,
2006-02-18,-0.34, -1.98, -5.04, 1.95, 1.57, 7.38, repro,
2006-02-19,-0.03, -0.97, -3.21, 1.94, 1.57, 7.35, repro,
2006-02-20,1.18, -0.21, 0.47, 1.95, 1.57, 7.35, repro,
2006-02-21,1.81, 0.40, 3.69, 1.95, 1.57, 7.37, repro,
2006-02-22,1.31, 0.87, 6.58, 1.95, 1.59, 7.38, repro,
2006-02-23,0.47, 0.21, -0.47, 1.92, 1.57, 7.27, repro,
2006-02-24,0.57, 0.16, -0.38, 1.93, 1.58, 7.34, repro,
2006-02-25,0.54, 0.37, -0.58, 1.93, 1.58, 7.33, repro,
2006-02-26,1.41, -0.74, 1.11, 1.94, 1.59, 7.36, repro,
2006-02-27,0.84, -0.50, 10.27, 1.97, 1.62, 7.47, repro,
2006-02-28,-0.44, 1.83, 16.10, 2.00, 1.63, 7.43, repro,
2006-03-01,-0.47, -0.74, -1.18, 2.00, 1.67, 7.47, repro,
2006-03-02,0.18, 0.75, -2.59, 1.95, 1.59, 7.36, repro,
2006-03-03,0.26, 2.64, -2.16, 2.02, 1.61, 7.56, repro,
2006-03-04,1.07, -0.53, -1.98, 1.93, 1.60, 7.35, repro,
2006-03-05,0.55, 0.46, 1.59, 1.92, 1.59, 7.32, repro,
2006-03-06,5.58, 0.74, 2.17, 1.92, 1.59, 7.34, repro,
2006-03-07,1.84, 0.06, -1.37, 1.93, 1.59, 7.37, repro,
2006-03-08,1.30, -0.29, 2.30, 1.92, 1.59, 7.30, repro,
2006-03-09,0.64, -0.26, 12.29, 1.92, 1.58, 7.27, repro,
2006-03-10,0.22, 0.06, 12.96, 1.92, 1.59, 7.30, repro,
2006-03-11,-1.17, -0.51, 8.32, 1.94, 1.61, 7.35, repro,
2006-03-12,-0.44, -0.42, 1.83, 1.95, 1.61, 7.42, repro,
2006-03-13,0.82, 0.57, -1.02, 1.95, 1.62, 7.39, repro,
2006-03-14,0.49, 0.70, 5.68, 2.02, 1.69, 7.59, repro,
2006-03-15,0.60, 1.02, -4.60, 1.96, 1.62, 7.40, repro,
2006-03-16,-0.31, -0.81, -4.98, 1.99, 1.65, 7.49, repro,
2006-03-17,-0.69, -0.52, -5.89, 2.00, 1.66, 7.53, repro,
2006-03-18,-0.58, -0.42, -1.85, 1.95, 1.63, 7.37, repro,
2006-03-19,-0.43, -1.33, -0.71, 1.95, 1.64, 7.43, repro,
2006-03-20,1.13, -0.98, 8.64, 1.95, 1.64, 7.41, repro,
2006-03-21,0.40, -0.87, 3.31, 1.93, 1.64, 7.36, repro,
2006-03-22,-0.14, -0.05, -4.51, 1.93, 1.63, 7.36, repro,
2006-03-23,0.21, 0.19, -5.74, 2.01, 1.65, 7.55, repro,
2006-03-24,0.81, 0.21, -3.36, 2.02, 1.66, 7.62, repro,
2006-03-25,0.96, 1.51, -3.53, 2.01, 1.67, 7.69, repro,
2006-03-26,1.34, -0.54, 1.83, 2.00, 1.66, 7.59, repro,
2006-03-27,0.38, -1.22, 1.96, 1.99, 1.66, 7.56, repro,
2006-03-28,2.58, 0.65, 9.51, 1.92, 1.62, 7.36, repro,
2006-03-29,2.18, -0.14, 0.82, 1.89, 1.61, 7.30, repro,
2006-03-30,0.12, -1.09, -0.22, 1.90, 1.62, 7.36, repro,
2006-03-31,1.15, 0.07, -0.10, 1.90, 1.62, 7.37, repro,
2006-04-01,2.08, -1.23, -3.12, 1.89, 1.62, 7.35, repro,
2006-04-02,0.25, -0.90, -3.06, 1.91, 1.66, 7.50, repro,
2006-04-03,0.80, -0.83, 8.62, 1.90, 1.65, 7.47, repro,
2006-04-04,-0.60, -1.43, 16.26, 1.96, 1.65, 7.69, repro,
2006-04-05,2.30, -1.32, 4.30, 2.00, 1.67, 7.89, repro,
2006-04-06,1.65, -0.94, -4.17, 1.93, 1.66, 7.56, repro,
2006-04-07,2.07, -1.68, 1.76, 1.98, 1.67, 7.61, repro,
2006-04-08,0.83, -0.37, -4.19, 2.02, 1.65, 7.75, repro,
2006-04-09,1.76, -0.67, 4.67, 1.87, 1.59, 7.26, repro,
2006-04-10,0.24, -1.33, 3.20, 1.91, 1.61, 7.38, repro,
2006-04-11,0.70, -0.29, -0.50, 1.96, 1.64, 7.70, repro,
2006-04-12,4.17, -2.43, -2.26, 1.96, 1.63, 7.68, repro,
2006-04-13,12.44, -1.36, 9.50, 1.90, 1.60, 7.35, repro,
2006-04-14,-2.13, -2.96, 11.72, 1.93, 1.63, 7.48, repro,
2006-04-15,0.36, 0.78, 8.89, 1.94, 1.62, 7.45, repro,
2006-04-16,-1.00, -0.98, 4.50, 1.89, 1.61, 7.34, repro,
2006-04-17,0.22, 0.90, 8.71, 1.90, 1.61, 7.39, repro,
2006-04-18,2.05, -1.47, -0.43, 1.92, 1.65, 7.60, repro,
2006-04-19,0.42, -0.80, 1.81, 1.89, 1.60, 7.35, repro,
2006-04-20,0.30, -0.87, 3.75, 1.91, 1.63, 7.45, repro,
2006-04-21,4.51, -2.97, 5.74, 1.91, 1.61, 7.37, repro,
2006-04-22,0.39, -0.19, 1.50, 1.89, 1.62, 7.36, repro,
2006-04-23,0.89, -1.67, -2.52, 1.92, 1.67, 7.52, repro,
2006-04-24,1.59, -1.79, -1.15, 1.92, 1.65, 7.51, repro,
2006-04-25,0.70, -0.63, -2.36, 1.95, 1.73, 7.69, repro,
2006-04-26,0.84, -1.64, 4.30, 1.93, 1.64, 7.46, repro,
2006-04-27,0.39, -2.29, -5.38, 1.97, 1.67, 7.57, repro,
2006-04-28,1.09, -0.70, 3.15, 1.95, 1.63, 7.46, repro,
2006-04-29,1.17, -0.12, -1.72, 1.93, 1.65, 7.45, repro,
2006-04-30,0.19, -1.22, -1.81, 1.89, 1.60, 7.36, repro,
2006-05-01,0.16, -1.77, -2.82, 1.91, 1.61, 7.38, repro,
2006-05-02,-0.26, -1.83, 5.58, 1.91, 1.60, 7.36, repro,
2006-05-03,0.71, -0.41, -3.70, 1.90, 1.60, 7.37, repro,
2006-05-04,0.63, -2.30, -5.06, 1.88, 1.60, 7.32, repro,
2006-05-05,1.27, -1.22, -1.01, 1.90, 1.60, 7.35, repro,
2006-05-06,2.45, -1.49, -1.83, 1.90, 1.60, 7.32, repro,
2006-05-07,1.57, -1.37, -3.24, 1.91, 1.60, 7.37, repro,
2006-05-08,1.38, -0.55, -4.56, 1.90, 1.61, 7.40, repro,
2006-05-09,0.16, -1.15, 7.57, 1.95, 1.63, 7.55, repro,
2006-05-10,0.67, -0.42, 0.39, 1.89, 1.61, 7.38, repro,
2006-05-11,-0.33, -2.05, 2.48, 1.89, 1.60, 7.35, repro,
2006-05-12,0.74, -1.62, -0.44, 1.91, 1.61, 7.41, repro,
2006-05-13,0.54, -0.03, 4.87, 1.91, 1.61, 7.42, repro,
2006-05-14,1.82, -0.56, -0.15, 1.94, 1.64, 7.53, repro,
2006-05-15,1.24, 0.23, -5.72, 1.90, 1.62, 7.41, repro,
2006-05-16,0.31, -0.76, -0.89, 1.98, 1.72, 7.84, repro,
2006-05-17,1.05, -0.93, 2.64, 1.93, 1.63, 7.45, repro,
2006-05-18,0.84, -0.29, 10.58, 1.91, 1.61, 7.40, repro,
2006-05-19,1.28, 0.10, 10.60, 2.05, 1.66, 7.84, repro,
2006-05-20,-0.19, -4.18, 16.20, 2.00, 1.63, 7.63, repro,
2006-05-21,5.64, -0.22, 11.08, 2.05, 1.66, 7.83, repro,
2006-05-22,-0.93, -1.47, 12.08, 2.08, 1.68, 7.97, repro,
2006-05-23,1.03, -1.31, 1.18, 1.98, 1.62, 7.55, repro,
2006-05-24,-0.13, -0.35, 4.96, 2.00, 1.66, 7.70, repro,
2006-05-25,0.96, -1.71, 7.37, 2.10, 1.68, 8.01, repro,
2006-05-26,0.84, -1.32, 4.04, 2.04, 1.65, 7.83, repro,
2006-05-27,-0.74, -0.91, 7.40, 2.02, 1.65, 7.68, repro,
2006-05-28,0.53, -1.29, 8.56, 1.97, 1.62, 7.54, repro,
2006-05-29,1.38, -0.25, 7.62, 2.01, 1.66, 7.69, repro,
2006-05-30,1.09, -0.87, 4.55, 2.06, 1.69, 7.85, repro,
2006-05-31,0.38, -1.20, 1.71, 2.07, 1.69, 7.88, repro,
2006-06-01,0.42, -1.18, 2.25, 2.00, 1.64, 7.66, repro,
2006-06-02,-0.92, -1.46, -4.02, 2.09, 1.71, 7.92, repro,
2006-06-03,-0.67, 0.10, 1.48, 2.02, 1.64, 7.65, repro,
2006-06-04,1.41, -1.99, 9.20, 2.03, 1.65, 7.67, repro,
2006-06-05,0.46, -1.66, 10.47, 2.10, 1.75, 8.04, repro,
2006-06-06,0.36, 0.52, 7.33, 2.02, 1.65, 7.64, repro,
2006-06-07,-0.01, -1.64, 7.21, 2.09, 1.75, 8.12, repro,
2006-06-08,-0.44, -0.33, 0.05, 2.05, 1.63, 7.74, repro,
2006-06-09,0.43, -1.21, 5.54, 1.99, 1.63, 7.59, repro,
2006-06-10,-0.20, -1.37, 5.30, 2.01, 1.65, 7.70, repro,
2006-06-11,0.54, -0.12, 10.16, 2.02, 1.66, 7.72, repro,
2006-06-12,-0.64, -2.37, 3.41, 2.03, 1.72, 7.84, repro,
2006-06-13,4.13, 1.93, 12.60, 2.03, 1.67, 7.75, repro,
2006-06-14,0.97, -0.90, 5.51, 1.98, 1.61, 7.54, repro,
2006-06-15,0.55, -0.17, 13.56, 2.00, 1.65, 7.72, repro,
2006-06-16,0.78, -1.09, 13.54, 1.98, 1.62, 7.58, repro,
2006-06-17,-0.37, -0.25, 8.69, 1.97, 1.62, 7.60, repro,
2006-06-18,0.68, -2.48, 1.74, 2.00, 1.66, 7.79, repro,
2006-06-19,0.88, -1.38, 0.32, 1.98, 1.65, 7.69, repro,
2006-06-20,1.08, -0.60, 11.89, 2.04, 1.69, 7.84, repro,
2006-06-21,-0.91, 0.98, 9.00, 2.05, 1.71, 7.88, repro,
2006-06-22,-0.91, -0.50, 14.99, 2.03, 1.71, 7.92, repro,
2006-06-23,0.17, -0.79, 3.04, 2.00, 1.67, 7.83, repro,
2006-06-24,0.17, -0.22, 2.82, 1.99, 1.66, 7.76, repro,
2006-06-25,1.72, 0.74, 0.73, 2.01, 1.67, 7.78, repro,
2006-06-26,0.35, 1.29, 6.35, 2.04, 1.73, 7.93, repro,
2006-06-27,-0.20, 0.32, 4.83, 2.05, 1.72, 8.02, repro,
2006-06-28,0.63, -1.05, 4.72, 2.04, 1.73, 8.02, repro,
2006-06-29,1.69, 1.27, 9.52, 1.96, 1.69, 7.71, repro,
2006-06-30,0.35, -1.68, 4.83, 2.00, 1.66, 7.80, repro,
2006-07-01,1.23, -0.72, 13.61, 2.04, 1.73, 7.98, repro,
2006-07-02,-0.12, 0.58, 6.40, 2.08, 1.70, 8.09, repro,
2006-07-03,1.01, -0.84, 1.82, 1.97, 1.64, 7.74, repro,
2006-07-04,0.67, -1.36, 0.49, 1.97, 1.63, 7.69, repro,
2006-07-05,-0.11, -1.07, 2.84, 1.96, 1.62, 7.66, repro,
2006-07-06,1.23, -1.35, -2.45, 1.96, 1.62, 7.65, repro,
2006-07-07,-0.23, -1.64, 4.97, 2.00, 1.66, 7.82, repro,
2006-07-08,0.03, 0.73, 4.45, 2.04, 1.74, 8.15, repro,
2006-07-09,1.49, 0.32, 4.19, 2.06, 1.74, 8.04, repro,
2006-07-10,-1.39, -0.42, 4.64, 2.00, 1.63, 7.74, repro,
2006-07-11,0.22, -0.41, -1.17, 1.97, 1.62, 7.63, repro,
2006-07-12,0.60, -0.44, 1.60, 2.00, 1.67, 7.80, repro,
2006-07-13,1.14, -1.40, 3.80, 1.98, 1.62, 7.69, repro,
2006-07-14,1.03, 0.87, 3.48, 1.97, 1.63, 7.74, repro,
2006-07-15,0.09, -2.35, 11.28, 1.98, 1.63, 7.73, repro,
2006-07-16,-0.12, -0.38, 0.29, 1.96, 1.63, 7.71, repro,
2006-07-17,0.62, -0.54, 3.49, 2.02, 1.69, 8.06, repro,
2006-07-18,-0.00, 1.36, 12.76, 1.94, 1.63, 7.47, repro,
2006-07-19,0.61, -0.63, 14.49, 1.91, 1.63, 7.52, repro,
2006-07-20,1.90, -0.19, 4.34, 1.94, 1.67, 7.62, repro,
2006-07-21,0.98, -0.17, 9.86, 1.97, 1.63, 7.66, repro,
2006-07-22,-0.75, -0.03, -3.05, 1.94, 1.69, 7.69, repro,
2006-07-23,2.14, -0.76, 9.38, 1.93, 1.63, 7.53, repro,
2006-07-24,1.73, -1.27, 3.86, 1.91, 1.62, 7.44, repro,
2006-07-25,1.76, -1.58, 11.54, 2.01, 1.81, 8.17, repro,
2006-07-26,-0.19, 0.15, 0.78, 1.93, 1.66, 7.46, repro,
2006-07-27,-0.26, 0.54, 2.46, 1.89, 1.59, 7.35, repro,
2006-07-28,1.39, -0.11, 5.58, 1.94, 1.66, 7.45, repro,
2006-07-29,1.34, -0.38, 6.54, 1.90, 1.60, 7.43, repro,
2006-07-30,1.17, 1.25, 9.84, 1.96, 1.67, 7.61, repro,
2006-07-31,-1.43, 1.31, 8.18, 1.92, 1.62, 7.42, repro,
2006-08-01,-0.02, 0.70, 4.43, 1.91, 1.61, 7.33, repro,
2006-08-02,0.29, -0.69, 8.99, 1.92, 1.65, 7.60, repro,
2006-08-03,0.78, 0.03, 7.66, 1.99, 1.76, 7.97, repro,
2006-08-04,1.62, 0.64, 17.47, 2.05, 1.73, 8.03, repro,
2006-08-05,0.48, 0.01, 0.34, 1.99, 1.72, 7.88, repro,
2006-08-06,-0.71, 5.90, -9.89, 2.12, 1.82, 8.40, repro,
2006-08-07,-0.74, 2.69, 2.85, 1.96, 1.67, 7.67, repro,
2006-08-08,-0.15, 0.71, -0.37, 1.94, 1.67, 7.54, repro,
2006-08-09,1.17, -0.20, -1.25, 1.92, 1.62, 7.50, repro,
2006-08-10,1.15, 0.08, -1.41, 1.92, 1.63, 7.50, repro,
2006-08-11,0.69, 1.87, 8.86, 1.93, 1.62, 7.46, repro,
2006-08-12,1.48, 0.83, 5.88, 1.90, 1.61, 7.37, repro,
2006-08-13,0.19, -0.26, 5.93, 1.95, 1.68, 7.60, repro,
2006-08-14,2.07, -0.50, 10.10, 1.96, 1.67, 7.59, repro,
2006-08-15,1.16, 1.45, 10.30, 2.03, 1.70, 7.77, repro,
2006-08-16,1.57, 0.37, 4.51, 1.95, 1.66, 7.52, repro,
2006-08-17,1.06, -0.52, 5.19, 2.01, 1.69, 7.68, repro,
2006-08-18,0.51, 0.41, 1.26, 1.96, 1.73, 7.67, repro,
2006-08-19,-0.56, 0.64, -0.28, 1.91, 1.61, 7.42, repro,
2006-08-20,0.97, 0.48, 8.67, 1.90, 1.60, 7.35, repro,
2006-08-21,0.04, -1.19, 9.25, 1.99, 1.74, 7.87, repro,
2006-08-22,1.62, 2.19, 12.99, 1.95, 1.65, 7.47, repro,
2006-08-23,0.37, 0.94, 3.78, 1.91, 1.64, 7.41, repro,
2006-08-24,-0.28, 1.19, 5.97, 1.97, 1.69, 7.69, repro,
2006-08-25,-0.10, 1.21, 22.67, 1.98, 1.70, 7.76, repro,
2006-08-26,1.05, -1.00, 8.06, 1.97, 1.69, 7.77, repro,
2006-08-27,1.46, 0.44, 3.59, 1.98, 1.73, 7.85, repro,
2006-08-28,0.84, -0.04, 4.96, 1.97, 1.72, 7.81, repro,
2006-08-29,0.82, 0.53, 5.55, 1.98, 1.74, 7.92, repro,
2006-08-30,0.96, -1.03, 12.89, 2.08, 1.80, 8.22, repro,
2006-08-31,3.20, -0.40, 10.87, 1.97, 1.72, 7.86, repro,
2006-09-01,3.79, -1.26, 2.68, 2.03, 1.75, 8.00, repro,
2006-09-02,0.76, 0.25, -1.07, 1.97, 1.72, 7.85, repro,
2006-09-03,1.60, 0.90, -1.01, 1.97, 1.72, 7.87, repro,
2006-09-04,1.09, -0.39, 3.73, 2.09, 1.84, 8.26, repro,
2006-09-05,1.53, 1.07, 0.13, 2.11, 1.87, 8.31, repro,
2006-09-06,1.81, 1.06, -0.93, 1.98, 1.72, 7.84, repro,
2006-09-07,0.16, -0.30, 13.20, 2.02, 1.77, 8.03, repro,
2006-09-08,3.26, -0.85, 3.54, 2.01, 1.77, 7.95, repro,
2006-09-09,0.54, -0.56, 6.08, 1.94, 1.69, 7.58, repro,
2006-09-10,1.31, 1.05, 0.77, 1.95, 1.68, 7.61, repro,
2006-09-11,1.04, 0.26, 2.12, 1.95, 1.68, 7.65, repro,
2006-09-12,1.76, 0.09, 4.44, 1.95, 1.69, 7.66, repro,
2006-09-13,1.91, 1.59, 3.32, 1.94, 1.68, 7.59, repro,
2006-09-14,0.84, -0.18, 8.92, 2.04, 1.77, 7.92, repro,
2006-09-15,0.44, 0.54, 3.58, 2.01, 1.67, 7.74, repro,
2006-09-16,0.97, -0.04, 8.13, 1.92, 1.63, 7.47, repro,
2006-09-17,1.05, 0.41, 5.60, 1.91, 1.64, 7.48, repro,
2006-09-18,1.46, 0.88, 8.11, 1.91, 1.63, 7.45, repro,
2006-09-19,0.76, -0.38, 4.19, 1.92, 1.64, 7.47, repro,
2006-09-20,0.62, -0.30, 5.31, 1.91, 1.63, 7.43, repro,
2006-09-21,0.92, -0.08, 6.26, 1.96, 1.67, 7.59, repro,
2006-09-22,0.75, 1.02, 10.99, 2.04, 1.75, 7.98, repro,
2006-09-23,1.90, 0.33, 4.99, 1.99, 1.69, 7.69, repro,
2006-09-24,2.50, 0.14, -0.13, 2.05, 1.75, 8.02, repro,
2006-09-25,2.03, 0.58, 5.00, 2.03, 1.68, 7.82, repro,
2006-09-26,2.13, -0.37, 4.99, 1.99, 1.66, 7.62, repro,
2006-09-27,2.53, 0.95, 3.21, 1.99, 1.66, 7.63, repro,
2006-09-28,1.88, 0.71, 8.35, 2.04, 1.77, 7.84, repro,
2006-09-29,1.59, -0.90, 10.14, 2.03, 1.79, 8.07, repro,
2006-09-30,2.54, -1.54, 15.20, 1.97, 1.68, 7.64, repro,
2006-10-01,1.87, -0.46, 3.99, 1.96, 1.66, 7.60, repro,
2006-10-02,0.84, -1.15, 2.84, 2.04, 1.76, 7.86, repro,
2006-10-03,2.17, -0.66, 0.82, 2.10, 1.82, 8.13, repro,
2006-10-04,4.87, 0.05, 5.87, 2.02, 1.73, 7.89, repro,
2006-10-05,1.01, -1.71, 6.39, 2.01, 1.69, 7.91, repro,
2006-10-06,0.67, -0.18, -0.45, 2.01, 1.68, 7.90, repro,
2006-10-07,2.02, -0.34, 0.50, 2.04, 1.75, 8.12, repro,
2006-10-08,1.34, -0.96, 3.59, 2.03, 1.75, 8.11, repro,
2006-10-09,1.33, -0.65, 1.46, 2.07, 1.77, 8.18, repro,
2006-10-10,1.36, -1.00, -2.02, 1.98, 1.69, 7.74, repro,
2006-10-11,0.72, -0.71, 7.67, 1.96, 1.69, 7.72, repro,
2006-10-12,0.68, 1.98, 9.64, 2.00, 1.70, 7.76, repro,
2006-10-13,2.55, -0.92, 4.19, 1.91, 1.66, 7.60, repro,
2006-10-14,1.63, -0.42, 3.30, 1.93, 1.70, 7.73, repro,
2006-10-15,1.27, 0.32, 11.78, 1.92, 1.69, 7.66, repro,
2006-10-16,0.26, 0.27, 13.43, 1.94, 1.66, 7.63, repro,
2006-10-17,1.07, -0.49, 13.50, 1.99, 1.74, 7.94, repro,
2006-10-18,2.56, 0.75, 12.08, 1.97, 1.72, 7.95, repro,
2006-10-19,0.78, -1.14, 7.14, 2.17, 1.86, 8.86, repro,
2006-10-20,0.76, -1.10, 9.50, 2.29, 2.03, 9.93, repro,
2006-10-21,1.30, -1.08, 9.88, 2.15, 1.86, 8.64, repro,
2006-10-22,1.96, -1.37, 2.27, 1.92, 1.72, 7.68, repro,
2006-10-23,1.68, -0.75, 1.75, 2.10, 1.89, 8.53, repro,
2006-10-24,1.33, -0.84, 5.83, 2.01, 1.78, 8.03, repro,
2006-10-25,1.28, -1.18, 7.29, 2.00, 1.77, 7.88, repro,
2006-10-26,1.99, 0.18, 3.30, 1.94, 1.73, 7.66, repro,
2006-10-27,2.17, 0.27, -3.97, 1.92, 1.75, 7.74, repro,
2006-10-28,1.72, -0.81, 2.53, 2.11, 1.81, 8.59, repro,
2006-10-29,0.59, -0.53, 4.04, 1.93, 1.73, 7.70, repro,
2006-10-30,0.04, 0.14, 7.10, 1.91, 1.70, 7.65, repro,
2006-10-31,1.55, -0.51, 6.41, 1.94, 1.73, 7.75, repro,
2006-11-01,1.42, -0.24, 5.53, 1.97, 1.80, 7.94, repro,
2006-11-02,1.16, 0.20, 1.57, 1.94, 1.74, 7.75, repro,
2006-11-03,1.45, -0.41, 6.16, 1.95, 1.77, 7.89, repro,
2006-11-04,0.92, -0.55, 2.50, 1.96, 1.73, 7.78, repro,
2006-11-05,2.02, -0.34, 1.77, 1.98, 1.76, 7.95, repro,
2006-11-06,1.96, -0.82, 1.29, 1.87, 1.65, 7.44, repro,
2006-11-07,2.36, -0.26, 4.32, 2.00, 1.80, 8.10, repro,
2006-11-08,1.86, -0.35, 13.18, 2.00, 1.76, 8.00, repro,
2006-11-09,1.19, -1.14, 8.70, 1.99, 1.80, 8.09, repro,
2006-11-10,0.64, 0.46, 0.79, 1.94, 1.66, 7.67, repro,
2006-11-11,1.50, 0.47, -1.09, 1.96, 1.72, 7.89, repro,
2006-11-12,1.23, -0.25, 2.47, 2.01, 1.78, 8.00, repro,
2006-11-13,1.38, 0.53, 7.16, 1.99, 1.73, 7.92, repro,
2006-11-14,2.32, 2.67, 6.57, 1.93, 1.72, 7.72, repro,
2006-11-15,0.22, 0.22, 4.06, 1.88, 1.64, 7.43, repro,
2006-11-16,0.72, -0.29, 5.49, 1.86, 1.63, 7.36, repro,
2006-11-17,2.80, 0.55, 6.13, 1.86, 1.63, 7.32, repro,
2006-11-18,0.81, 0.59, -2.37, 1.87, 1.63, 7.32, repro,
2006-11-19,0.97, -0.96, -1.20, 1.87, 1.64, 7.39, repro,
2006-11-20,0.24, 0.25, 2.62, 1.88, 1.64, 7.41, repro,
2006-11-21,0.49, 0.05, 2.53, 1.87, 1.64, 7.41, repro,
2006-11-22,0.95, 0.30, 4.25, 1.86, 1.64, 7.33, repro,
2006-11-23,0.74, -0.32, -2.31, 1.89, 1.67, 7.54, repro,
2006-11-24,1.38, -0.69, 1.33, 1.95, 1.70, 7.69, repro,
2006-11-25,-0.14, -0.51, 3.25, 1.91, 1.65, 7.50, repro,
2006-11-26,0.29, 0.21, 1.56, 1.91, 1.66, 7.55, repro,
2006-11-27,0.67, 0.08, 0.69, 1.90, 1.65, 7.45, repro,
2006-11-28,1.44, -0.91, 5.10, 1.87, 1.64, 7.36, repro,
2006-11-29,0.60, 0.13, 1.18, 1.87, 1.63, 7.33, repro,
2006-11-30,1.59, 0.01, -1.38, 1.89, 1.65, 7.44, repro,
2006-12-01,0.77, 0.25, -1.39, 1.88, 1.65, 7.44, repro,
2006-12-02,0.33, -0.06, -8.11, 1.88, 1.65, 7.39, repro,
2006-12-03,0.98, 0.12, -3.18, 1.88, 1.65, 7.37, repro,
2006-12-04,1.73, -0.78, -7.48, 1.97, 1.68, 7.67, repro,
2006-12-05,1.72, 0.09, -2.40, 1.95, 1.77, 7.67, repro,
2006-12-06,1.47, -0.50, 0.47, 2.03, 1.83, 8.17, repro,
2006-12-07,0.54, -0.90, -1.49, 1.90, 1.72, 7.52, repro,
2006-12-08,0.74, -0.54, 0.58, 1.91, 1.72, 7.52, repro,
2006-12-09,0.93, -1.21, 3.95, 1.99, 1.82, 7.72, repro,
2006-12-10,4.97, 0.09, 9.29, 1.94, 1.72, 7.62, repro,
2006-12-11,1.41, -1.06, -1.47, 1.87, 1.67, 7.44, repro,
2006-12-12,1.63, 0.20, 2.92, 2.02, 1.77, 8.00, repro,
2006-12-13,2.27, -0.49, -2.14, 1.90, 1.73, 7.53, repro,
2006-12-14,2.76, -0.52, 0.75, 1.87, 1.69, 7.48, repro,
2006-12-15,1.62, 0.30, -2.39, 1.96, 1.77, 7.84, repro,
2006-12-16,2.30, 0.10, 0.77, 1.98, 1.79, 7.75, repro,
2006-12-17,2.16, -1.46, 2.79, 1.98, 1.77, 7.96, repro,
2006-12-18,0.99, -0.83, 1.77, 2.03, 1.85, 8.22, repro,
2006-12-19,2.15, -0.46, -1.47, 1.98, 1.85, 7.98, repro,
2006-12-20,1.67, -0.42, 0.17, 2.06, 1.88, 8.24, repro,
2006-12-21,0.64, -0.54, -3.77, 1.90, 1.79, 7.62, repro,
2006-12-22,2.39, -1.90, 4.87, 1.94, 1.75, 7.85, repro,
2006-12-23,2.07, -0.17, -0.31, 1.96, 1.83, 7.95, repro,
2006-12-24,2.34, 1.25, -3.96, 1.87, 1.68, 7.47, repro,
2006-12-25,1.33, -0.14, -4.65, 1.94, 1.79, 7.68, repro,
2006-12-26,1.40, -0.28, -2.79, 1.96, 1.75, 7.89, repro,
2006-12-27,1.17, 1.56, 9.50, 1.99, 1.80, 8.11, repro,
2006-12-28,0.13, -3.21, 6.25, 2.16, 2.06, 8.92, repro,
2006-12-29,1.18, -1.35, -2.29, 2.07, 1.97, 8.45, repro,
2006-12-30,2.05, 0.02, 2.38, 2.00, 1.80, 7.90, repro,
2006-12-31,1.11, -0.37, 1.88, 2.15, 1.99, 8.87, repro,
2007-01-01,0.73, -0.36, -2.32, 2.17, 2.05, 8.92, repro,
2007-01-02,3.12, -0.02, 0.22, 2.06, 1.93, 8.29, repro,
2007-01-03,1.62, -0.23, 4.97, 1.88, 1.75, 7.60, repro,
2007-01-04,2.27, -0.80, 6.48, 1.87, 1.70, 7.48, repro,
2007-01-05,1.88, 0.45, 2.29, 1.91, 1.75, 7.62, repro,
2007-01-06,1.87, -0.61, -5.24, 1.88, 1.73, 7.52, repro,
2007-01-07,2.72, 0.06, -7.30, 1.89, 1.67, 7.43, repro,
2007-01-08,1.90, -1.10, -7.52, 1.92, 1.72, 7.54, repro,
2007-01-09,1.96, -0.35, -6.62, 1.90, 1.67, 7.33, repro,
2007-01-10,1.30, 0.08, 2.55, 1.95, 1.73, 7.53, repro,
2007-01-11,0.96, -0.35, 3.32, 1.96, 1.68, 7.60, repro,
2007-01-12,1.37, -0.94, -4.77, 1.87, 1.63, 7.30, repro,
2007-01-13,0.52, -0.59, -6.67, 1.82, 1.61, 7.07, repro,
2007-01-14,1.38, 0.01, -6.80, 1.84, 1.62, 7.18, repro,
2007-01-15,1.88, 0.61, -9.58, 1.82, 1.62, 7.17, repro,
2007-01-16,2.53, 0.77, -5.27, 1.87, 1.62, 7.26, repro,
2007-01-17,1.57, -0.34, -4.69, 1.88, 1.66, 7.28, repro,
2007-01-18,2.00, -0.09, -9.83, 1.90, 1.72, 7.48, repro,
2007-01-19,1.14, 0.03, -4.01, 1.89, 1.64, 7.41, repro,
2007-01-20,1.74, 0.49, -3.64, 1.90, 1.64, 7.46, repro,
2007-01-21,0.07, 0.89, -1.81, 1.83, 1.62, 7.16, repro,
2007-01-22,0.94, 0.74, -7.69, 1.84, 1.62, 7.13, repro,
2007-01-23,1.52, 0.19, -10.69, 1.83, 1.62, 7.12, repro,
2007-01-24,0.88, -0.47, -5.47, 1.84, 1.61, 7.16, repro,
2007-01-25,1.66, -0.04, -12.72, 1.88, 1.66, 7.24, repro,
2007-01-26,0.48, 1.08, -5.77, 1.83, 1.61, 7.09, repro,
2007-01-27,0.59, 0.85, -1.28, 1.83, 1.61, 7.08, repro,
2007-01-28,0.52, 0.58, -7.02, 1.83, 1.62, 7.08, repro,
2007-01-29,-0.68, 0.11, -7.56, 1.84, 1.62, 7.12, repro,
2007-01-30,2.30, -0.06, -6.25, 1.84, 1.62, 7.13, repro,
2007-01-31,0.49, 0.73, 2.08, 1.83, 1.60, 7.05, repro,
2007-02-01,0.48, 1.01, 0.50, 1.86, 1.66, 7.28, repro,
2007-02-02,0.56, 1.19, -0.57, 1.88, 1.64, 7.31, repro,
2007-02-03,1.00, 0.11, -6.30, 1.86, 1.63, 7.29, repro,
2007-02-04,1.60, 0.39, -6.32, 1.84, 1.60, 7.09, repro,
2007-02-05,1.32, 1.11, -4.60, 1.83, 1.61, 7.08, repro,
2007-02-06,1.48, 0.70, -5.90, 1.88, 1.62, 7.17, repro,
2007-02-07,2.17, -0.36, -2.08, 1.84, 1.61, 7.11, repro,
2007-02-08,1.21, 0.76, -3.84, 1.91, 1.70, 7.43, repro,
2007-02-09,0.97, 1.43, 0.62, 1.87, 1.68, 7.30, repro,
2007-02-10,0.54, 1.51, -5.39, 1.85, 1.62, 7.11, repro,
2007-02-11,2.20, 2.76, 1.09, 1.85, 1.62, 7.09, repro,
2007-02-12,0.76, 1.40, -6.63, 1.84, 1.61, 7.12, repro,
2007-02-13,0.61, 0.56, -2.22, 1.82, 1.61, 7.10, repro,
2007-02-14,0.91, 0.98, -6.33, 1.86, 1.61, 7.11, repro,